EW6055 Weather Reports


Display with metric or nautical units.
time (UTC)temp
F
wind
direction
speed
MPH
gust
MPH
rain 1hr
in
rain 24hr
in
rain mn
in
humidity
%
barometer
mb
20260506091523 59 312 0.0 3.0 0.00 0.00 0.00 84 1015.8
20260506091002 59 315 0.0 3.0 0.00 0.00 0.00 85 1015.7
20260506090502 59 315 0.0 2.0 0.00 0.00 0.00 85 1015.7
20260506090002 59 326 1.0 3.0 0.00 0.00 0.00 84 1015.7
20260506085502 60 332 0.0 3.0 0.00 0.00 0.00 84 1015.6
20260506085002 60 0 0.0 0.0 0.00 0.00 0.00 84 1015.6
20260506084503 60 0 0.0 0.0 0.00 0.00 0.00 84 1015.7
20260506084003 60 0 0.0 0.0 0.00 0.00 0.00 83 1015.7
20260506083503 60 0 0.0 0.0 0.00 0.00 0.00 83 1015.7
20260506083002 60 0 0.0 0.0 0.00 0.00 0.00 83 1015.7
20260506082502 60 0 0.0 0.0 0.00 0.00 0.00 82 1015.7
20260506082002 60 0 0.0 0.0 0.00 0.00 0.00 82 1015.7
20260506081502 60 0 0.0 0.0 0.00 0.00 0.00 81 1015.6
20260506081002 60 0 0.0 0.0 0.00 0.00 0.00 81 1015.6
20260506080524 60 0 0.0 0.0 0.00 0.00 0.00 81 1015.6
20260506073502 60 0 0.0 0.0 0.00 0.00 0.00 80 1015.2
20260506073002 60 0 0.0 0.0 0.00 0.00 0.00 80 1015.2
20260506072502 60 0 0.0 0.0 0.00 0.00 0.00 80 1015.3
20260506072002 60 0 0.0 0.0 0.00 0.00 0.00 80 1015.3
20260506071502 60 0 0.0 0.0 0.00 0.00 0.00 79 1015.3
20260506071003 60 0 0.0 0.0 0.00 0.00 0.00 79 1015.2
20260506070502 60 0 0.0 0.0 0.00 0.00 0.00 79 1015.2
20260506062503 61 0 0.0 0.0 0.00 0.00 0.00 78 1015.1
20260506062003 61 0 0.0 0.0 0.00 0.00 0.00 78 1015.1
20260506061503 61 0 0.0 0.0 0.00 0.00 0.00 78 1015.0
20260506061024 61 0 0.0 0.0 0.00 0.00 0.00 78 1015.0
20260506060503 61 0 0.0 0.0 0.00 0.00 0.00 77 1015.0
20260506051002 61 0 0.0 0.0 0.00 0.00 0.00 76 1014.7
20260506050503 61 190 0.0 2.0 0.00 0.00 0.00 76 1014.7
20260506045002 62 226 0.0 1.0 0.00 0.00 0.00 75 1014.6
20260506044502 62 228 0.0 2.0 0.00 0.00 0.00 75 1014.6
20260506044003 62 228 0.0 2.0 0.00 0.00 0.00 75 1014.5
20260506043503 62 229 0.0 1.0 0.00 0.00 0.00 75 1014.4
20260506043002 62 0 0.0 0.0 0.00 0.00 0.00 74 1014.3
20260506042503 62 0 0.0 0.0 0.00 0.00 0.00 74 1014.3
20260506042003 62 0 0.0 0.0 0.00 0.00 0.00 73 1014.2
20260506041502 62 229 0.0 1.0 0.00 0.00 0.00 73 1014.1
20260506041003 62 229 0.0 1.0 0.00 0.00 0.00 73 1014.1
20260506040502 62 229 0.0 1.0 0.00 0.00 0.00 73 1014.1
20260506040024 62 229 0.0 1.0 0.00 0.00 0.00 73 1014.0
20260506035502 63 229 0.0 1.0 0.00 0.00 0.00 73 1013.9
20260506035002 63 232 0.0 2.0 0.00 0.00 0.00 73 1013.9
20260506034523 63 232 0.0 2.0 0.00 0.00 0.00 72 1013.8
20260506034002 63 253 0.0 1.0 0.00 0.00 0.00 72 1013.8
20260506033502 63 256 0.0 1.0 0.00 0.00 0.00 72 1013.8
20260506033003 63 273 0.0 1.0 0.00 0.00 0.00 71 1013.8
20260506032503 64 273 0.0 1.0 0.00 0.00 0.00 71 1013.7
20260506032002 64 273 0.0 2.0 0.00 0.00 0.00 71 1013.6
20260506031503 64 259 1.0 2.0 0.00 0.00 0.00 70 1013.6
20260506031003 64 143 1.0 2.0 0.00 0.00 0.00 70 1013.6
20260506030523 64 86 0.0 2.0 0.00 0.00 0.00 69 1013.5
20260506030024 64 52 0.0 1.0 0.00 0.00 0.00 69 1013.5
20260506025502 64 52 0.0 1.0 0.00 0.00 0.00 69 1013.5
20260506025003 64 51 0.0 1.0 0.00 0.00 0.00 69 1013.4
20260506024523 64 51 0.0 1.0 0.00 0.00 0.00 69 1013.3
20260506024002 64 46 0.0 3.0 0.00 0.00 0.00 69 1013.4
20260506023524 64 45 0.0 3.0 0.00 0.00 0.00 69 1013.4
20260506023002 64 8 0.0 2.0 0.00 0.00 0.00 69 1013.5
20260506022502 64 6 0.0 2.0 0.00 0.00 0.00 68 1013.5
20260506022002 65 351 0.0 1.0 0.00 0.00 0.00 69 1013.4
20260506021502 65 348 0.0 2.0 0.00 0.00 0.00 68 1013.3
20260506021003 65 18 0.0 2.0 0.00 0.00 0.00 68 1013.3
20260506020503 65 120 0.0 1.0 0.00 0.00 0.00 68 1013.4
20260506020003 65 122 0.0 2.0 0.00 0.00 0.00 68 1013.4
20260506015503 65 122 0.0 2.0 0.00 0.00 0.00 67 1013.3
20260506015024 65 120 0.0 2.0 0.00 0.00 0.00 67 1013.3
20260506014503 65 0 0.0 0.0 0.00 0.00 0.00 68 1013.3
20260506014002 65 0 0.0 0.0 0.00 0.00 0.00 67 1013.4
20260506013502 65 0 0.0 0.0 0.00 0.00 0.00 68 1013.4
20260506013002 65 0 0.0 0.0 0.00 0.00 0.00 68 1013.3
20260506012503 64 0 0.0 0.0 0.00 0.00 0.00 68 1013.4
20260506012003 64 284 0.0 1.0 0.00 0.00 0.00 68 1013.4
20260506011502 64 282 0.0 2.0 0.00 0.00 0.00 68 1013.4
20260506011003 64 281 0.0 2.0 0.00 0.00 0.00 68 1013.4
20260506010503 64 0 0.0 0.0 0.00 0.00 0.00 68 1013.4
20260506010003 64 308 0.0 3.0 0.00 0.00 0.00 68 1013.4
20260506005503 65 301 1.0 3.0 0.00 0.00 0.00 68 1013.3
20260506005002 65 287 0.0 2.0 0.00 0.00 0.00 68 1013.4
20260506004503 65 281 1.0 4.0 0.00 0.00 0.00 68 1013.4
20260506004003 65 275 0.0 4.0 0.00 0.00 0.00 68 1013.5
20260506003502 65 265 0.0 3.0 0.00 0.00 0.00 68 1013.5
20260506003002 65 262 0.0 3.0 0.00 0.00 0.00 68 1013.5
20260506002502 64 267 1.0 3.0 0.00 0.00 0.00 68 1013.4
20260506002003 65 270 1.0 2.0 0.00 0.00 0.00 67 1013.5
20260506001502 65 246 0.0 2.0 0.00 0.00 0.00 68 1013.5
20260506001003 65 0 0.0 0.0 0.00 0.00 0.00 68 1013.6
20260506000524 65 0 0.0 0.0 0.00 0.00 0.00 68 1013.6
20260506000003 65 0 0.0 0.0 0.00 0.00 0.00 68 1013.6
20260505235503 65 0 0.0 0.0 0.00 0.00 0.00 67 1013.7
20260505235003 65 0 0.0 0.0 0.00 0.00 0.00 67 1013.8
20260505234503 65 0 0.0 0.0 0.00 0.00 0.00 67 1013.8
20260505234002 65 0 0.0 0.0 0.00 0.00 0.00 67 1013.9
20260505233502 66 0 0.0 0.0 0.00 0.00 0.00 67 1013.9
20260505233002 66 0 0.0 0.0 0.00 0.00 0.00 67 1013.8
20260505232502 65 0 0.0 0.0 0.00 0.00 0.00 67 1013.8
20260505232002 65 0 0.0 0.0 0.00 0.00 0.00 67 1013.8
20260505231503 65 279 0.0 3.0 0.00 0.00 0.00 67 1013.8
20260505231002 65 301 1.0 4.0 0.00 0.00 0.00 67 1013.9
20260505230502 65 305 1.0 4.0 0.00 0.00 0.00 66 1013.9
20260505230003 65 265 0.0 3.0 0.00 0.00 0.00 66 1014.0
20260505225503 65 0 0.0 0.0 0.00 0.00 0.00 66 1014.0
20260505225003 65 284 0.0 2.0 0.00 0.00 0.00 67 1014.0
20260505224502 65 280 1.0 4.0 0.00 0.00 0.00 67 1014.1
20260505224024 65 267 1.0 4.0 0.00 0.00 0.00 67 1014.1
20260505223523 65 261 1.0 3.0 0.00 0.00 0.00 67 1014.2
20260505223024 65 271 1.0 3.0 0.00 0.00 0.00 67 1014.2
20260505222502 65 300 1.0 5.0 0.00 0.00 0.00 68 1014.2
20260505222003 65 292 1.0 5.0 0.00 0.00 0.00 67 1014.2
20260505221503 65 258 1.0 4.0 0.00 0.00 0.00 67 1014.2
20260505221024 65 266 1.0 4.0 0.00 0.00 0.00 67 1014.2
20260505220503 65 278 1.0 4.0 0.00 0.00 0.00 67 1014.3
20260505220002 65 276 0.0 3.0 0.00 0.00 0.00 68 1014.3
20260505215502 65 264 0.0 1.0 0.00 0.00 0.00 68 1014.2
20260505215024 65 240 0.0 3.0 0.00 0.00 0.00 68 1014.3
20260505214524 65 258 1.0 4.0 0.00 0.00 0.00 68 1014.3
20260505214002 64 260 1.0 4.0 0.00 0.00 0.00 69 1014.3
20260505213503 64 235 1.0 3.0 0.00 0.00 0.00 68 1014.3
20260505213002 64 270 1.0 3.0 0.00 0.00 0.00 68 1014.4
20260505212524 64 296 0.0 3.0 0.00 0.00 0.00 68 1014.3
20260505212024 64 259 0.0 3.0 0.00 0.00 0.00 69 1014.4
20260505211502 64 243 1.0 3.0 0.00 0.00 0.00 68 1014.4
20260505211023 64 263 1.0 3.0 0.00 0.00 0.00 69 1014.5
20260505210524 64 286 1.0 3.0 0.00 0.00 0.00 69 1014.5
20260505210024 64 0 0.0 0.0 0.00 0.00 0.00 70 1014.5
20260505205503 64 237 0.0 2.0 0.00 0.00 0.00 70 1014.4
20260505205003 63 233 1.0 3.0 0.00 0.00 0.00 70 1014.5
20260505204524 63 246 1.0 3.0 0.00 0.00 0.00 70 1014.6
20260505204003 63 282 0.0 2.0 0.00 0.00 0.00 70 1014.6
20260505203502 63 0 0.0 0.0 0.00 0.00 0.00 71 1014.6
20260505203003 63 295 1.0 3.0 0.00 0.00 0.00 70 1014.7
20260505202503 63 295 1.0 3.0 0.00 0.00 0.00 70 1014.7
20260505202003 63 278 0.0 1.0 0.00 0.00 0.00 71 1014.7
20260505201503 63 0 0.0 0.0 0.00 0.00 0.00 71 1014.7
20260505201024 63 0 0.0 0.0 0.00 0.00 0.00 71 1014.8
20260505200503 63 115 0.0 3.0 0.00 0.00 0.00 71 1014.8
20260505200023 63 166 1.0 3.0 0.00 0.00 0.00 71 1014.8
20260505195503 63 221 1.0 3.0 0.00 0.00 0.00 71 1014.8
20260505195024 63 221 1.0 2.0 0.00 0.00 0.00 71 1014.8
20260505194503 63 207 1.0 2.0 0.00 0.00 0.00 70 1014.8
20260505194003 63 193 0.0 2.0 0.00 0.00 0.00 71 1014.8
20260505193503 63 0 0.0 0.0 0.00 0.00 0.00 71 1014.8
20260505193003 62 177 0.0 3.0 0.00 0.00 0.00 73 1014.9
20260505192503 62 185 1.0 3.0 0.00 0.00 0.00 72 1014.9
20260505192024 62 192 0.0 2.0 0.00 0.00 0.00 73 1014.8
20260505191503 62 0 0.0 0.0 0.00 0.00 0.00 73 1014.8
20260505191002 61 0 0.0 0.0 0.00 0.00 0.00 74 1014.8
20260505190503 61 109 0.0 1.0 0.00 0.00 0.00 74 1014.8
20260505190003 61 132 0.0 3.0 0.00 0.00 0.00 73 1014.9
20260505185503 61 148 1.0 3.0 0.00 0.00 0.00 73 1014.8
20260505185003 61 178 1.0 2.0 0.00 0.00 0.00 74 1014.9
20260505184503 61 200 1.0 2.0 0.00 0.00 0.00 74 1014.9
20260505184024 61 232 1.0 2.0 0.00 0.00 0.00 75 1014.9
20260505183503 61 240 1.0 3.0 0.00 0.00 0.00 75 1015.0
20260505183003 61 239 0.0 3.0 0.00 0.00 0.00 75 1014.9
20260505182524 60 235 0.0 2.0 0.00 0.00 0.00 76 1014.8
20260505182002 60 202 1.0 2.0 0.00 0.00 0.00 77 1014.8
20260505181502 60 210 1.0 2.0 0.00 0.00 0.00 77 1014.8
20260505181003 60 211 1.0 2.0 0.00 0.00 0.00 78 1014.8
20260505180503 59 173 0.0 1.0 0.00 0.00 0.00 78 1014.8
20260505180003 59 247 1.0 3.0 0.00 0.00 0.00 78 1014.8
20260505175503 59 231 1.0 3.0 0.00 0.00 0.00 79 1014.8
20260505175003 59 210 1.0 3.0 0.00 0.00 0.00 79 1014.8
20260505174503 58 211 1.0 2.0 0.00 0.00 0.00 79 1014.8
20260505174003 58 201 1.0 2.0 0.00 0.00 0.00 80 1014.7
20260505173524 58 190 1.0 2.0 0.00 0.00 0.00 80 1014.7
20260505173024 58 196 1.0 2.0 0.00 0.00 0.00 81 1014.7
20260505172503 58 210 1.0 2.0 0.00 0.00 0.00 82 1014.7
20260505172024 57 208 1.0 5.0 0.00 0.00 0.00 83 1014.6
20260505171503 57 152 1.0 5.0 0.00 0.00 0.00 85 1014.6
20260505171003 56 133 1.0 4.0 0.00 0.00 0.00 85 1014.6
20260505170524 56 139 1.0 3.0 0.00 0.00 0.00 86 1014.6
20260505170003 56 172 1.0 3.0 0.00 0.00 0.00 86 1014.6
20260505165524 56 193 1.0 3.0 0.00 0.00 0.00 87 1014.5
20260505165003 56 231 1.0 3.0 0.00 0.00 0.00 87 1014.5
20260505164524 55 228 1.0 3.0 0.00 0.00 0.00 87 1014.5
20260505164002 55 214 0.0 3.0 0.00 0.00 0.00 87 1014.5
20260505163503 55 0 0.0 0.0 0.00 0.00 0.00 88 1014.5
20260505163003 55 0 0.0 0.0 0.00 0.00 0.00 88 1014.4
20260505162503 55 0 0.0 0.0 0.00 0.00 0.00 89 1014.3
20260505162002 55 0 0.0 0.0 0.00 0.00 0.00 90 1014.4
20260505161503 54 0 0.0 0.0 0.00 0.00 0.00 90 1014.3
20260505161024 54 0 0.0 0.0 0.00 0.00 0.00 90 1014.3
20260505160502 54 0 0.0 0.0 0.00 0.00 0.00 90 1014.3
20260505153024 53 0 0.0 0.0 0.00 0.00 0.00 92 1014.3
20260505152524 53 0 0.0 0.0 0.00 0.00 0.00 92 1014.2
20260505152002 53 0 0.0 0.0 0.00 0.00 0.00 92 1014.3
20260505151524 53 0 0.0 0.0 0.00 0.00 0.00 92 1014.2
20260505151003 53 0 0.0 0.0 0.00 0.00 0.00 92 1014.2
20260505150503 53 0 0.0 0.0 0.00 0.00 0.00 92 1014.2
20260505140503 53 0 0.0 0.0 0.00 0.00 0.00 90 1013.7
20260505125003 53 179 1.0 2.0 0.00 0.00 0.00 88 1013.2
20260505124524 53 168 0.0 2.0 0.00 0.00 0.00 88 1013.2
20260505124003 53 186 0.0 1.0 0.00 0.00 0.00 88 1013.2
20260505123503 53 0 0.0 0.0 0.00 0.00 0.00 88 1013.2
20260505123003 53 198 0.0 2.0 0.00 0.00 0.00 88 1013.1
20260505122503 53 178 0.0 2.0 0.00 0.00 0.00 88 1013.1
20260505122003 53 172 0.0 2.0 0.00 0.00 0.00 88 1013.2
20260505121503 53 200 0.0 1.0 0.00 0.00 0.00 88 1013.2
20260505121003 53 0 0.0 0.0 0.00 0.00 0.00 88 1013.1
20260505120503 53 0 0.0 0.0 0.00 0.00 0.00 88 1013.1
20260505120003 53 0 0.0 0.0 0.00 0.00 0.00 88 1013.1
20260505115524 53 213 0.0 1.0 0.00 0.00 0.00 88 1013.0
20260505114503 53 210 0.0 2.0 0.00 0.00 0.00 89 1013.0
20260505114003 53 202 0.0 2.0 0.00 0.00 0.00 89 1013.0
20260505113503 53 204 0.0 2.0 0.00 0.00 0.00 89 1013.0
20260505113003 53 210 1.0 3.0 0.00 0.00 0.00 88 1013.1
20260505112503 53 203 1.0 3.0 0.00 0.00 0.00 88 1013.0
20260505112003 53 192 0.0 2.0 0.00 0.00 0.00 88 1012.9
20260505111503 53 0 0.0 0.0 0.00 0.00 0.00 88 1012.9
20260505111024 53 0 0.0 0.0 0.00 0.00 0.00 88 1012.9
20260505110503 53 198 0.0 1.0 0.00 0.00 0.00 88 1012.9
20260505102003 53 183 1.0 2.0 0.00 0.00 0.00 88 1012.5
20260505101503 53 184 0.0 2.0 0.00 0.00 0.00 88 1012.4
20260505101003 53 201 0.0 2.0 0.00 0.00 0.00 88 1012.5
20260505100524 53 195 0.0 2.0 0.00 0.00 0.00 89 1012.5
20260505100003 53 200 1.0 2.0 0.00 0.00 0.00 89 1012.5
20260505095503 53 206 0.0 2.0 0.00 0.00 0.00 89 1012.5
20260505095003 53 0 0.0 0.0 0.00 0.00 0.00 89 1012.5
20260505094524 53 153 0.0 1.0 0.00 0.00 0.00 89 1012.5
20260505094003 53 153 0.0 1.0 0.00 0.00 0.00 89 1012.4
20260505093503 53 168 0.0 2.0 0.00 0.00 0.00 89 1012.3
20260505093003 53 183 0.0 2.0 0.00 0.00 0.00 89 1012.3
20260505092503 53 197 0.0 2.0 0.00 0.00 0.00 89 1012.2
20260505092024 53 196 1.0 2.0 0.00 0.00 0.00 89 1012.2